This is the latest recevied weather packets stored in our database for station/object KQ4OSL. If no packets are shown the sender has not sent any weather packets the latest 10 day(s).
| Time | Temp. | Humidity | Pressure | Rain* | Wind** | Luminosity | Snow |
|---|---|---|---|---|---|---|---|
| 1777974472 | 7.78° C | 98% | 1016.1 hPa | 0 mm | - | 0 W/m² | - |
| 1777974169 | 7.78° C | 98% | 1016.1 hPa | 0 mm | - | 0 W/m² | - |
| 1777973865 | 7.78° C | 98% | 1016 hPa | 0 mm | - | 0 W/m² | - |
| 1777973563 | 7.78° C | 97% | 1016.2 hPa | 0 mm | - | 0 W/m² | - |
| 1777973259 | 8.33° C | 97% | 1015.9 hPa | 0 mm | - | 0 W/m² | - |
| 1777972958 | 8.33° C | 97% | 1016.1 hPa | 0 mm | - | 0 W/m² | - |
| 1777972655 | 8.33° C | 97% | 1016 hPa | 0 mm | - | 0 W/m² | - |
| 1777972353 | 8.33° C | 97% | 1016.2 hPa | 0 mm | - | 0 W/m² | - |
| 1777972050 | 8.33° C | 97% | 1016.2 hPa | 0 mm | - | 0 W/m² | - |
| 1777971749 | 8.89° C | 97% | 1016.4 hPa | 0 mm | - | 0 W/m² | - |
| 1777971446 | 8.33° C | 97% | 1016.3 hPa | 0 mm | - | 0 W/m² | - |
| 1777971144 | 8.33° C | 97% | 1016.2 hPa | 0 mm | - | 0 W/m² | - |
| 1777970841 | 8.33° C | 97% | 1016.5 hPa | 0 mm | - | 0 W/m² | - |
| 1777970540 | 8.33° C | 97% | 1016.4 hPa | 0 mm | - | 0 W/m² | - |
| 1777970236 | 8.33° C | 97% | 1016.4 hPa | 0 mm | - | 0 W/m² | - |
| 1777969933 | 8.33° C | 97% | 1016.6 hPa | 0 mm | - | 0 W/m² | - |
| 1777969629 | 8.89° C | 96% | 1016.6 hPa | 0 mm | - | 0 W/m² | - |
| 1777969326 | 8.33° C | 96% | 1016.3 hPa | 0 mm | - | 0 W/m² | - |
| 1777969022 | 8.89° C | 96% | 1016.2 hPa | 0 mm | - | 0 W/m² | - |
| 1777968720 | 8.89° C | 96% | 1016.4 hPa | 0 mm | - | 0 W/m² | - |
| 1777968417 | 8.89° C | 96% | 1016.2 hPa | 0 mm | - | 0 W/m² | - |
| 1777968112 | 8.89° C | 96% | 1016.2 hPa | 0 mm | - | 0 W/m² | - |
| 1777967808 | 9.44° C | 96% | 1016.2 hPa | 0 mm | - | 0 W/m² | - |
| 1777967505 | 8.89° C | 95% | 1016.1 hPa | 0 mm | - | 0 W/m² | - |
| 1777967202 | 8.89° C | 95% | 1016.1 hPa | 0 mm | - | 0 W/m² | - |
* Rain latest hour (hover to see other rain measurements)
** Current wind speed in m/s (hover to see current wind gust speed)